www.pogodaiklimat.ru

Погода и климат >> Архив погоды >> Австралия >> Новый Южный Уэльс >> Сидней


АРХИВ ПОГОДЫ в Сиднее

Время (UTC), дата Ветер
(напр.,м/с)
 
Видим.   Явления Облачность Т
(С)
Тd
(С)
f
(%)
Тe
(С)
Тes
(С)
Комфортность P
(гПа)
Po
(гПа)
Тmin
(С)
Tmax
(С)
R
(мм)
R24
(мм)
S
(см)
16 18.06 0 н/о н/о +11.3 +3.8 60 1018.7 1013.9
17 18.06 0 н/о н/о +10.9 +4.6 65 1018.7 1013.9
19 18.06 0 н/о н/о +10.0 +4.4 68 1019.0 1014.1
20 18.06 0 н/о н/о +9.6 +4.2 69 1019.9 1015.0
22 18.06 0 н/о н/о +9.8 +4.2 68 1021.3 1016.4
23 18.06 0 н/о н/о +11.0 +3.1 58 1021.7 1016.8
01 19.06 0 н/о н/о +13.3 +4.2 54 1022.2 1017.3
02 19.06 0 н/о н/о +14.6 +5.7 55 1021.7 1016.8 +9.2
04 19.06 0 н/о н/о +16.5 +2.9 40 1020.8 1015.9
05 19.06 0 н/о н/о +16.7 +3.4 41 1021.2 1016.3
07 19.06 0 н/о н/о +13.9 +1.9 44 1022.3 1017.4
08 19.06 0 н/о н/о +13.2 +1.2 44 1022.9 1018.0
10 19.06 0 н/о н/о +12.9 +3.3 52 1023.9 1019.0
11 19.06 0 н/о н/о +12.2 +3.4 55 1024.1 1019.2
13 19.06 0 н/о н/о +9.2 +4.4 72 1024.1 1019.2
14 19.06 0 н/о н/о +8.6 +3.0 68 1024.0 1019.1 +17.4
16 19.06 0 н/о н/о +7.4 +2.9 73 1023.6 1018.7
17 19.06 0 н/о н/о +7.3 +2.6 72 1023.9 1019.0
19 19.06 0 н/о н/о +6.3 +2.2 75 1023.8 1018.9
20 19.06 0 н/о н/о +6.3 +2.4 76 1024.4 1019.5
22 19.06 0 н/о н/о +7.1 +2.4 72 1024.9 1020.0
23 19.06 0 н/о н/о +8.1 +2.6 68 1025.0 1020.1
01 20.06 0 н/о н/о +11.9 +4.2 59 1024.6 1019.7
02 20.06 0 н/о н/о +13.9 +5.3 56 1023.6 1018.7 +6.2
04 20.06 0 н/о н/о +15.5 +5.4 51 1022.1 1017.2
05 20.06 0 н/о н/о +14.9 +5.4 53 1021.8 1016.9
07 20.06 0 н/о н/о +12.8 +5.7 62 1021.8 1016.9
08 20.06 0 н/о н/о +12.8 +6.4 65 1021.8 1016.9
10 20.06 0 н/о н/о +11.5 +5.4 66 1022.6 1017.7
11 20.06 0 н/о н/о +11.0 +6.4 73 1022.4 1017.5
13 20.06 0 н/о н/о +9.6 +5.2 74 1022.1 1017.2
14 20.06 0 н/о н/о +9.1 +5.3 77 1022.1 1017.2 +16.6
16 20.06 0 н/о н/о +8.9 +5.3 78 1021.7 1016.8
17 20.06 0 н/о н/о +8.7 +4.7 76 1021.5 1016.6
19 20.06 0 н/о н/о +8.1 +2.8 69 1021.6 1016.7
20 20.06 0 н/о н/о +8.3 +1.7 63 1021.9 1017.0
22 20.06 0 н/о н/о +7.6 +0.8 62 1023.1 1018.2
23 20.06 0 н/о н/о +7.8 +0.5 60 1023.2 1018.3
01 21.06 0 н/о н/о +10.3 +1.2 53 1023.5 1018.6
02 21.06 0 н/о н/о +12.2 +1.5 48 1022.9 1018.0 +7.6
04 21.06 0 н/о н/о +15.5 +0.9 37 1022.3 1017.4
05 21.06 0 н/о н/о +15.0 +0.8 38 1022.6 1017.7
07 21.06 0 н/о н/о +12.7 +1.4 46 1023.2 1018.3
08 21.06 0 н/о н/о +12.1 +1.1 47 1023.8 1018.9
10 21.06 0 н/о н/о +11.7 +1.1 48 1024.7 1019.8
11 21.06 0 н/о н/о +11.6 +1.5 50 1025.1 1020.2
13 21.06 0 н/о н/о +9.3 +1.2 57 1025.4 1020.5
14 21.06 0 н/о н/о +8.9 +0.9 57 1025.0 1020.1 +16.0
16 21.06 0 н/о н/о +7.4 +0.6 62 1024.9 1020.0
17 21.06 0 н/о н/о +7.3 +0.1 60 1024.8 1019.9
19 21.06 0 н/о н/о +6.9 +0.1 62 1024.6 1019.7
20 21.06 0 н/о н/о +7.3 +0.3 61 1024.9 1020.0
22 21.06 0 н/о н/о +7.8 +0.8 61 1025.8 1020.9
23 21.06 0 н/о н/о +8.8 +1.0 58 1026.2 1021.3
01 22.06 0 н/о н/о +12.7 +4.2 56 1026.1 1021.2
02 22.06 0 н/о н/о +14.0 +5.1 55 1025.4 1020.5 +6.9
04 22.06 0 н/о н/о +14.1 +4.9 54 1025.0 1020.1
05 22.06 0 н/о н/о +14.4 +5.7 56 1024.9 1020.0
07 22.06 0 н/о н/о +12.5 +7.6 72 1025.5 1020.6
08 22.06 0 н/о туман местами н/о +12.0 +7.9 76 1026.0 1021.1
10 22.06 0 н/о н/о +11.5 +4.3 61 1026.1 1021.2
11 22.06 0 н/о {туман} н/о +10.5 +4.0 64 1026.2 1021.3
13 22.06 0 н/о н/о +9.3 +4.3 71 1025.6 1020.7
14 22.06 0 н/о {туман} н/о +8.6 +3.2 69 1025.6 1020.7 +16.0
16 22.06 0 н/о н/о +8.1 +2.6 68 1025.6 1020.7
17 22.06 0 н/о {туман} н/о +7.8 +2.3 68 1025.6 1020.7
19 22.06 0 н/о н/о +7.1 +1.8 69 1025.4 1020.5
20 22.06 0 н/о н/о +7.3 +2.2 70 1025.7 1020.8
22 22.06 0 н/о н/о +7.9 +3.8 75 1026.9 1022.0
23 22.06 0 н/о н/о +9.4 +4.8 73 1027.2 1022.3
01 23.06 0 н/о н/о +13.4 +6.0 61 1026.9 1022.0
02 23.06 0 н/о н/о +14.2 +5.8 57 1026.3 1021.4 +7.2
04 23.06 0 н/о н/о +15.8 +6.3 53 1025.4 1020.5
05 23.06 0 н/о н/о +14.3 +6.9 61 1025.6 1020.7
07 23.06 0 н/о н/о +12.6 +7.7 72 1026.3 1021.4
08 23.06 0 н/о н/о +12.2 +6.5 68 1026.9 1022.0
10 23.06 0 н/о н/о +11.0 +7.9 81 1027.3 1022.4
11 23.06 0 н/о в посл. час дождь {туман} н/о +11.0 +8.2 83 1028.0 1023.1
13 23.06 0 н/о н/о +10.9 +8.8 87 1028.3 1023.4
14 23.06 0 н/о в посл. час дождь {туман} н/о +10.4 +8.5 88 1028.4 1023.5 +16.9
16 23.06 0 н/о н/о +10.4 +8.7 89 1028.5 1023.6
17 23.06 0 н/о в посл. час дождь {туман} н/о +10.3 +8.6 89 1028.5 1023.6
19 23.06 0 н/о н/о +10.9 +9.2 89 1029.0 1024.1
20 23.06 0 н/о туман местами н/о +10.9 +9.3 90 1029.6 1024.7
22 23.06 0 н/о н/о +10.5 +8.9 90 1030.6 1025.7
23 23.06 0 н/о в посл. час дождь {туман} н/о +11.1 +9.7 91 1030.9 1026.0
01 24.06 0 н/о н/о +13.8 +11.8 88 1031.0 1026.1
02 24.06 0 н/о в посл. час дождь {туман} н/о +15.0 +10.4 74 1030.6 1025.7 +10.2
04 24.06 0 н/о н/о +15.3 +10.7 74 1030.1 1025.2
05 24.06 0 н/о туман местами н/о +14.5 +11.5 82 1030.2 1025.3
07 24.06 0 н/о н/о +13.3 +9.0 75 1030.5 1025.6
08 24.06 0 н/о н/о +13.7 +8.7 72 1031.1 1026.2
10 24.06 0 н/о н/о +13.0 +9.4 79 1031.9 1027.0
11 24.06 0 н/о в посл. час дождь {туман} н/о +13.1 +10.6 85 1031.9 1027.0
13 24.06 0 н/о н/о +11.7 +9.8 88 1032.3 1027.4
14 24.06 0 н/о {туман} н/о +11.9 +10.3 90 1032.3 1027.4 +18.1
16 24.06 0 н/о н/о +12.1 +10.5 90 1032.5 1027.6
17 24.06 0 н/о в посл. час дождь {туман} н/о +12.1 +10.5 90 1032.3 1027.4
19 24.06 0 н/о н/о +11.9 +10.3 90 1032.3 1027.4
20 24.06 0 н/о н/о +12.0 +10.4 90 1032.5 1027.6
22 24.06 0 н/о н/о +11.5 +10.1 91 1033.4 1028.5
23 24.06 0 н/о в посл. час дождь {туман} н/о +12.2 +10.8 91 1033.9 1029.0
01 25.06 0 н/о н/о +14.6 +13.0 90 1033.7 1028.8
02 25.06 0 н/о {туман} н/о +15.4 +10.6 73 1033.0 1028.1 +11.4
04 25.06 0 н/о н/о +15.6 +12.4 81 1032.5 1027.6
05 25.06 0 н/о в посл. час дождь {туман} н/о +15.7 +11.9 78 1032.5 1027.6
07 25.06 0 н/о н/о +14.4 +11.6 83 1032.9 1028.0
08 25.06 0 н/о {туман} н/о +14.2 +11.5 84 1033.1 1028.2
10 25.06 0 н/о н/о +14.8 +10.4 75 1033.6 1028.7
11 25.06 0 н/о {туман} н/о +15.1 +10.5 74 1033.8 1028.9
13 25.06 0 н/о н/о +13.8 +11.7 87 1033.8 1028.9
14 25.06 0 н/о {туман} н/о +13.8 +11.1 84 1033.8 1028.9 +17.0

 

Местоположение метеостанции Сидней (Новый Южный Уэльс, Австралия): широта -33.93 долгота 151.18 высота над уровнем моря 5 м.

В архиве по умолчанию представлена погода в Сиднее за последнюю неделю. Архивные данные за месяц целиком и за предыдущие месяцы, начиная с января 2011 года, Вы можете получить, выбрав интересующий диапазон дат из раскрывающегося списка и нажав кнопку "Ввод!".


*Определитесь, кто Вы:
робот инопланетянин человек

Внимание! Время в таблицах - всемирное. Для получения местного времени необходимо прибавить поправку, которая равна 10 ч.

Смотрите также архив погоды в соседних городах и на ближайших метеорологических станциях:

Погода в Сидней аэропорту (Новый Южный Уэльс, Австралия) (2 км)
Погода в Кентербери (Новый Южный Уэльс, Австралия) (6 км)
Погода в Кернелле (Новый Южный Уэльс, Австралия) (8 км)
Погода в Литл Бэй (Новый Южный Уэльс, Австралия) (9 км)
Погода в Сидней Олимпик Парке (Новый Южный Уэльс, Австралия) (15 км)
Погода в Банкстауне (Новый Южный Уэльс, Австралия) (18 км)
Погода в Уаттамолле (Новый Южный Уэльс, Австралия) (23 км)
Погода в Холсворти (Новый Южный Уэльс, Австралия) (25 км)
Погода в Террей Хилс (Новый Южный Уэльс, Австралия) (28 км)
Погода в Хорсли-Парке (Новый Южный Уэльс, Австралия) (32 км)

Пояснения к столбцам:

Ветер - указаны скорость ветра в м/с - средняя за 10 мин, порывы в срок и между сроками (в фигурных скобках) и направление, откуда дует ветер: С - северный, СВ - северо-восточный, В - восточный, ЮВ - юго-восточный, Ю - южный, ЮЗ - юго-западный, З - западный, СЗ - северо-западный.
Видимость - горизонтальная дальность видимости в метрах или километрах. При видимости от 1 до 10 км при отсутствии осадков обычно наблюдается дымка, при ухудшении видимости до 1 км и менее - туман. В сухую погоду видимость может ухудшаться дымом, пылью или мглою.
Явления - указаны атмосферные явления, наблюдавшиеся в срок или в последний час перед сроком; фигурными скобками обозначены явления, наблюдавшиеся между сроками (за 1-3 часа до срока); квадратными скобками обозначены град или гололедные отложения с указанием их диаметра в мм.
Облачность - указаны через наклонную черту общая и нижняя облачность в баллах и высота нижней границы облаков в метрах; квадратными скобками обозначены формы облаков: Ci - перистые, Cs - перисто-слоистые, Cc - перисто-кучевые, Ac - высококучевые, As - высокослоистые, Sc - слоисто-кучевые, Ns - слоисто-дождевые, Cu - кучевые, Cb - кучево-дождевые. Подробнее классификацию облаков см. в Атласе облаков (PDF).
T - Температура воздуха - температура, измеренная на высоте 2 м над землей.
Td - Температура точки росы - температура, при понижении до которой содержащийся в воздухе водяной пар достигнет насыщения.
f - Относительная влажность воздуха - влажноcть воздуха, измеренная на высоте 2 м над землей.
Te - Эффективная температура - температура, которую ощущает одетый по сезону человек в тени. Характеристика душности погоды. При расчете учитывается влияние влажности воздуха и скорости ветра на теплоощущения человека.
Tes - Эффективная температура на солнце - температура, которую ощущает человек, с поправкой на солнечный нагрев. Характеристика знойности погоды. Зависит от высоты солнца над горизонтом, облачности и скорости ветра. Ночью, в пасмурную погоду, а также при ветре 12 м/с и более поправка равна нулю.
P - Атмосферное давление - приведенное к уровню моря атмосферное давление.
Po - Атмосферное давление - измеренное на уровне метеостанции атмосферное давление.
Tmin - Минимальная температура - минимум температуры воздуха на высоте 2 м над землей.
Tmax - Максимальная температура - максимум температуры воздуха на высоте 2 м над землей.
R - Количество осадков - Количество выпавших осадков за период времени, мм. При наведении курсора мыши на число - период времени, за который выпало указанное количество осадков.
R24 - Количество осадков - Количество выпавших осадков за 24 часа, мм.
S - Снежный покров - Высота снежного покрова, см. При наведении курсора мыши на число - состояние снежного покрова и степень покрытия местности в баллах.